Regional Weather Roundup
Issued by NWS Kansas City/Pleasant Hill, MO

Home | Current Version | Previous Version | Graphics & Text | Print | Product List | Glossary Off
Versions: 1 2 3 4 5 6 7 8 9 10 11 12 13 14 15 16 17 18 19 20 21 22 23 24 25 26 27 28 29 30 31 32 33 34 35 36 37 38 39 40 41 42 43 44 45 46 47 48 49 50

000
ASUS43 KEAX 260110
RWREAX

WEATHER ROUNDUP FOR EASTERN KANSAS AND NORTHWEST MISSOURI
NATIONAL WEATHER SERVICE KANSAS CITY/PLEASANT HILL MO
800 PM CDT WED MAY 25 2016

KSZ040-057-103>105-MOZ028-029-037-043-260200-
...KANSAS CITY METROPOLITAN AREA...

CITY           SKY/WX    TMP DP  RH WIND       PRES   REMARKS
K.C. INTL      MOCLDY    76  67  73 S8        29.86R
K.C. DOWNTOWN  MOCLDY    80  67  64 S8        29.84S
LEES SUMMIT    PTCLDY    80  66  62 S12       29.86S
OLATHE - IXD   PTCLDY    78  70  76 SE7       29.86S
OLATHE - OJC   PTCLDY    76  68  76 S9        29.86S
LAWRENCE       MOCLDY    78  69  73 SE6       29.83S

$$

MOZ001>008-011>017-020>025-030>033-038>040-044>046-053-054-260200-
...NORTHERN AND CENTRAL MISSOURI...

CITY           SKY/WX    TMP DP  RH WIND       PRES   REMARKS
ST. JOSEPH     CLOUDY    78  67  68 SE7       29.84R
MOSBY          CLOUDY    81  64  57 S6        29.86R
WARRENSBURG    CLEAR     77  64  65 SE6       29.88S
WHITEMAN AFB   MOCLDY    80  69  69 SW8       29.88R
CLINTON        CLOUDY    79  68  69 S6        29.90S
SEDALIA        CLOUDY    79  66  64 S8        29.91R
WARSAW         NOT AVBL
CHILLICOTHE      N/A     81  65  58 S3        29.88R
KIRKSVILLE     CLOUDY    78  63  59 S6        29.90R

$$

MOZ041-047>049-056>058-063>065-088>090-097-260200-
...EASTERN AND SOUTHERN MISSOURI...

CITY           SKY/WX    TMP DP  RH WIND       PRES   REMARKS
ST. LOUIS INTL PTCLDY    81  63  54 S10       29.95R
SPIRIT OF STL  PTCLDY    78  64  61 S6        29.93R
COLUMBIA       CLEAR     77  65  66 S7        29.92R
JEFFERSON CITY CLEAR     79  63  57 SE5       29.91R
ROLLA          CLEAR     73  64  73 S9        29.95R
SPRINGFIELD    CLOUDY    76  67  73 SE12      29.95R
BRANSON        PTCLDY    75  68  78 S7        29.99R
JOPLIN         PTCLDY    78  71  79 S12       29.90S
WEST PLAINS    CLEAR     73  64  73 S8        30.03R

$$

IAZ060-094-KSZ022-034>040-054-083-096-NEZ052-066-093-260200-
...KANSAS...SOUTHEAST NEBRASKA AND IOWA...

CITY           SKY/WX    TMP DP  RH WIND       PRES   REMARKS
TOPEKA         CLOUDY    79  69  71 SE7       29.83R
MANHATTAN      CLOUDY    77  69  76 E5        29.78F
EMPORIA        PTCLDY    79  73  82 SE12      29.81S
CHANUTE        CLEAR     80  72  76 S15       29.84F
WICHITA        PTCLDY    84  72  67 S20G25    29.78S
OMAHA          MOCLDY    76  67  73 SE7       29.82S
LINCOLN        CLEAR     76  67  73 S7        29.82F
FALLS CITY     CLOUDY    78  68  71 SE7       29.82F
LAMONI         CLOUDY    75  66  73 S3        29.87S
DES MOINES     CLOUDY    78  63  59 SE5       29.85S

$$




USA.gov is the U.S. government's official web portal to all federal, state and local government web resources and services.